Weather History for Al Ain, United Arab Emirates

Change the Weather History Date:

Wednesday, February 13, 2013

  Actual Average Record
Temperature  
Mean Temperature 74 °F -  
Max Temperature 84 °F 82 °F 91 °F (2003)
Min Temperature 65 °F 59 °F 48 °F (2014)
Cooling Degree Days 10    
Growing Degree Days 24 (Base 50)    
Moisture  
Dew Point 52 °F    
Average Humidity 46    
Maximum Humidity 73    
Minimum Humidity 19    
Precipitation  
Precipitation 0.00 in - - ()
Sea Level Pressure  
Sea Level Pressure 29.97 in    
Wind  
Wind Speed 8 mph ()    
Max Wind Speed 17 mph    
Max Gust Speed -    
Visibility 6.0 miles    
Events      
Averages and records for this station are not official NWS values.
T = Trace of Precipitation, MM = Missing Value Source: Averaged Metar Reports

Daily Weather History Graph

Daily Weather History Graph

Search for Another Location

Airport:

Trip Planner

Search our weather history database for the weather conditions in past years. The results will help you decide how hot, cold, wet, or windy it might be!

Date:

Astronomy

Feb. 13, 2013 Rise Set
Actual Time 6:52 AM GST 6:11 PM GST
Civil Twilight 6:29 AM GST 6:34 PM GST
Nautical Twilight 6:02 AM GST 7:01 PM GST
Astronomical Twilight 5:35 AM GST 7:27 PM GST
Moon 8:36 AM GST (2/13) 9:18 PM GST (2/13)
Length of Visible Light 12h 05m
Length of Day
11h 18m
Waxing Crescent, 11% of the Moon is Illuminated
Feb 13
Waxing Crescent
Feb 18
First Quarter
Feb 26
Full
Mar 5
Last Quarter
Mar 11
New

Hourly Weather History & Observations

Time (GST) Temp. Dew Point Humidity Pressure Visibility Wind Dir Wind Speed Gust Speed Precip Events Conditions
12:00 AM 71.6 °F 57.2 °F 60% 29.95 in - East 6.9 mph - N/A   Clear
1:00 AM 72 °F 58 °F 53% 29.94 in 6 mi East 5.8 mph - -  
1:00 AM 71.6 °F 59.0 °F 64% 29.95 in - East 5.8 mph - N/A   Clear
2:00 AM 71.6 °F 59.0 °F 64% 29.95 in - East 6.9 mph - N/A   Clear
3:00 AM 69.8 °F 59.0 °F 68% 29.95 in - East 8.1 mph - N/A   Clear
4:00 AM 70 °F 59 °F 61% 29.92 in 6 mi East 6.9 mph - -  
4:00 AM 69.8 °F 59.0 °F 68% 29.92 in - East 6.9 mph - N/A   Clear
5:00 AM 68.0 °F 59.0 °F 73% 29.92 in - ESE 6.9 mph - N/A   Clear
6:00 AM 66.2 °F 51.8 °F 60% 29.98 in - SSE 11.5 mph - N/A   Clear
7:00 AM 66.2 °F 55.4 °F 68% 30.01 in - SSE 11.5 mph - N/A   Clear
8:00 AM 68.0 °F 55.4 °F 64% 30.01 in - South 11.5 mph - N/A   Clear
9:00 AM 69.8 °F 57.2 °F 64% 30.04 in - South 15.0 mph - N/A   Clear
10:00 AM 72 °F 57 °F 49% 30.03 in 6 mi South 17.3 mph - -  
10:00 AM 71.6 °F 57.2 °F 60% 30.04 in - South 17.3 mph - N/A   Clear
11:00 AM 75.2 °F 57.2 °F 53% 30.04 in - South 13.8 mph - N/A   Clear
12:00 PM 78.8 °F 55.4 °F 44% 30.01 in - South 13.8 mph - N/A   Clear
1:00 PM 81 °F 52 °F 26% 29.96 in 6 mi South 8.1 mph - -  
1:00 PM 80.6 °F 51.8 °F 37% 30.01 in - South 8.1 mph - N/A   Clear
2:00 PM 82.4 °F 50.0 °F 32% 29.98 in - SW 8.1 mph - N/A   Clear
3:00 PM 84.2 °F 48.2 °F 29% 29.95 in - WSW 8.1 mph - N/A   Clear
4:00 PM 84 °F 48 °F 19% 29.90 in 6 mi West 8.1 mph - -   Scattered Clouds
4:00 PM 84.2 °F 48.2 °F 29% 29.92 in - West 8.1 mph - N/A   Clear
5:00 PM 84.2 °F 46.4 °F 27% 29.92 in - WNW 4.6 mph - N/A   Clear
6:00 PM 82.4 °F 46.4 °F 28% 29.95 in - NW 16.1 mph - N/A   Clear
7:00 PM 78 °F 46 °F 21% 29.93 in 6 mi NW 12.7 mph - -   Scattered Clouds
7:00 PM 78.8 °F 46.4 °F 32% 29.95 in - NW 12.7 mph - N/A   Clear
8:00 PM 77.0 °F 44.6 °F 32% 29.98 in - NNW 6.9 mph - N/A   Clear
9:00 PM 73.4 °F 46.4 °F 38% 29.98 in - North 6.9 mph - N/A   Clear
10:00 PM 72 °F 46 °F 28% 29.96 in 6 mi ENE 4.6 mph - -  
10:00 PM 71.6 °F 46.4 °F 41% 29.98 in - ENE 4.6 mph - N/A   Clear
11:00 PM 69.8 °F 44.6 °F 40% 29.98 in - East 3.5 mph - N/A   Clear